Total_Precipitation_Accumulation
1.58 2.04 2.57 3.09 3.78 4.69 5.61 5.96 5.71 5.13 4.68 4.27 3.78 3.41 3.07 2.82 2.70 2.39 2.08 1.99 1.92 1.87 2.03 1.76 1.90 1.93 2.01 2.04 2.06 2.16 2.09 1.87 2.02 2.34 2.15 1.74 1.57 1.57 1.51 1.51 1.59 1.43 1.52
1.64 2.14 2.74 3.17 3.52 4.05 4.79 5.08 4.74 4.10 3.51 3.24 3.08 2.89 2.79 2.48 2.29 2.19 2.09 1.82 1.82 1.78 1.77 1.85 1.61 1.64 1.78 1.73 1.79 2.10 2.06 1.78 1.87 2.22 2.34 2.07 2.03 1.75 1.28 1.38 1.52 1.49 1.60
1.47 2.21 2.75 3.05 3.30 3.50 3.49 3.60 3.50 3.00 2.65 2.55 2.54 2.49 2.56 2.39 2.15 2.03 1.89 1.65 1.58 1.49 1.52 1.55 1.57 1.66 1.58 1.66 1.77 1.87 1.98 1.86 1.72 1.81 2.27 2.20 2.01 1.78 1.55 1.38 1.36 1.49 1.72
1.32 2.08 2.37 2.49 2.53 2.62 2.42 2.41 2.50 2.33 2.27 2.17 2.20 2.08 1.93 1.88 1.78 1.78 1.74 1.64 1.52 1.43 1.33 1.37 1.40 1.52 1.51 1.73 1.55 1.64 1.84 1.87 1.66 1.70 1.84 1.89 1.91 1.92 1.71 1.46 1.33 1.37 1.48
1.02 1.37 1.44 1.57 1.65 1.72 1.76 1.92 2.18 2.21 2.09 2.03 2.15 2.17 1.89 1.72 1.62 1.64 1.72 1.62 1.52 1.42 1.30 1.32 1.41 1.47 1.51 1.55 1.57 1.78 1.77 1.70 1.66 1.68 1.76 1.83 1.83 1.73 1.73 1.66 1.43 1.34 1.23
0.71 0.91 0.97 1.02 1.09 1.15 1.27 1.48 1.89 2.08 1.94 1.88 1.94 1.92 1.85 1.78 1.64 1.54 1.55 1.54 1.49 1.49 1.49 1.40 1.48 1.47 1.48 1.47 1.49 1.63 1.67 1.69 1.73 1.65 1.61 1.76 1.84 1.77 1.81 1.72 1.50 1.36 1.17
0.64 0.74 0.89 0.95 0.87 0.84 0.97 1.18 1.47 1.60 1.56 1.61 1.73 1.81 1.87 1.81 1.64 1.56 1.47 1.45 1.38 1.41 1.53 1.51 1.52 1.53 1.54 1.45 1.49 1.53 1.51 1.58 1.70 1.65 1.55 1.54 1.54 1.65 1.74 1.74 1.53 1.41 1.25
0.49 0.51 0.61 0.63 0.61 0.68 0.77 0.94 1.09 1.16 1.25 1.36 1.54 1.68 1.70 1.69 1.64 1.69 1.55 1.44 1.33 1.31 1.43 1.53 1.52 1.45 1.38 1.36 1.61 1.50 1.43 1.53 1.59 1.54 1.77 1.69 1.52 1.67 1.77 1.81 1.84 1.67 1.57
0.35 0.34 0.36 0.39 0.44 0.59 0.71 0.78 0.88 0.98 1.09 1.20 1.41 1.55 1.57 1.54 1.56 1.62 1.55 1.39 1.39 1.34 1.40 1.35 1.43 1.43 1.34 1.39 1.55 1.54 1.50 1.55 1.52 1.63 1.83 1.80 1.72 1.74 1.78 1.93 2.12 2.24 2.04
0.29 0.31 0.31 0.30 0.30 0.37 0.52 0.67 0.75 0.90 1.06 1.14 1.17 1.24 1.42 1.40 1.36 1.30 1.28 1.35 1.37 1.35 1.41 1.42 1.32 1.32 1.35 1.44 1.56 1.52 1.50 1.60 1.68 1.83 1.93 1.92 1.90 1.90 1.82 1.90 2.05 2.22 2.27
0.33 0.29 0.33 0.33 0.30 0.34 0.44 0.58 0.66 0.77 0.88 0.91 0.94 1.06 1.17 1.17 1.13 1.12 1.10 1.20 1.22 1.25 1.28 1.30 1.30 1.29 1.37 1.58 1.82 1.76 1.71 1.74 1.80 1.88 2.04 2.10 2.23 2.23 2.09 2.07 2.05 2.11 2.23
0.47 0.41 0.42 0.39 0.40 0.40 0.42 0.53 0.53 0.57 0.63 0.70 0.77 0.87 0.99 0.99 0.99 1.02 1.15 1.23 1.21 1.14 1.05 1.09 1.16 1.15 1.26 1.52 1.84 1.98 1.98 2.00 1.95 2.02 2.23 2.26 2.27 2.23 2.14 2.17 2.14 2.09 2.22
0.50 0.60 0.58 0.44 0.42 0.38 0.41 0.46 0.46 0.51 0.59 0.64 0.67 0.72 0.85 0.98 1.03 1.08 1.15 1.23 1.25 1.20 1.19 1.20 1.20 1.32 1.41 1.45 1.63 1.82 1.90 1.94 1.93 2.06 2.13 2.11 2.18 2.13 2.11 2.01 1.97 1.95 2.10
0.52 0.66 0.71 0.49 0.41 0.41 0.44 0.46 0.46 0.44 0.45 0.53 0.62 0.70 0.83 1.00 1.12 1.16 1.22 1.29 1.32 1.29 1.33 1.33 1.36 1.46 1.50 1.47 1.56 1.72 1.84 1.90 1.92 1.99 2.06 2.12 2.11 2.14 2.23 2.11 2.08 2.17 2.27
0.53 0.51 0.54 0.48 0.46 0.47 0.46 0.49 0.53 0.52 0.51 0.64 0.72 0.79 0.92 1.00 1.09 1.22 1.32 1.42 1.44 1.37 1.43 1.49 1.48 1.48 1.42 1.38 1.60 1.73 1.74 1.87 1.93 1.92 1.88 1.95 2.14 2.22 2.24 2.07 2.12 2.26 2.24
0.58 0.66 0.66 0.62 0.62 0.61 0.56 0.57 0.62 0.64 0.75 0.87 0.93 0.98 1.05 1.13 1.16 1.23 1.28 1.41 1.45 1.49 1.57 1.62 1.65 1.56 1.37 1.57 1.68 1.69 1.72 1.81 1.86 1.85 1.77 1.70 1.72 1.81 1.92 1.92 1.88 1.92 1.97
0.71 0.82 0.87 0.85 0.83 0.76 0.70 0.70 0.74 0.83 0.95 1.08 1.24 1.28 1.28 1.33 1.36 1.38 1.39 1.42 1.55 1.65 1.67 1.63 1.62 1.60 1.66 1.70 1.55 1.48 1.40 1.45 1.53 1.52 1.49 1.31 1.23 1.47 1.56 1.70 1.69 1.58 1.55
0.72 0.86 0.97 0.98 0.89 0.87 0.88 0.95 1.00 1.08 1.21 1.30 1.43 1.56 1.61 1.67 1.72 1.78 1.76 1.77 1.81 1.89 1.83 1.72 1.71 1.78 1.82 1.83 1.58 1.47 1.34 1.33 1.33 1.31 1.27 1.27 1.27 1.32 1.43 1.48 1.47 1.42 1.38
0.82 0.99 1.01 0.99 0.98 1.08 1.12 1.13 1.19 1.26 1.44 1.60 1.71 1.81 1.88 1.91 1.91 1.92 2.02 2.10 2.20 2.21 2.11 2.05 2.08 2.11 2.20 2.20 1.90 1.76 1.53 1.46 1.39 1.40 1.44 1.45 1.33 1.37 1.32 1.32 1.32 1.32 1.37
0.95 1.07 1.11 1.10 1.16 1.39 1.43 1.46 1.51 1.58 1.65 1.70 1.80 1.96 2.07 2.13 2.11 2.13 2.27 2.43 2.55 2.52 2.49 2.50 2.53 2.47 2.46 2.40 2.04 1.90 1.69 1.68 1.63 1.64 1.55 1.48 1.32 1.27 1.20 1.19 1.24 1.20 1.22
0.90 1.03 1.07 1.11 1.18 1.38 1.54 1.76 1.91 1.93 1.92 1.96 1.98 2.02 2.13 2.25 2.29 2.35 2.41 2.57 2.68 2.66 2.62 2.57 2.52 2.44 2.43 2.37 2.05 1.89 1.71 1.72 1.75 1.68 1.60 1.51 1.38 1.20 1.15 1.08 1.08 1.09 1.15
0.84 0.95 1.10 1.17 1.27 1.44 1.69 1.89 2.04 2.16 2.23 2.20 2.28 2.28 2.29 2.22 2.20 2.38 2.52 2.64 2.77 2.73 2.68 2.69 2.57 2.47 2.42 2.22 1.99 1.81 1.71 1.78 1.83 1.79 1.71 1.63 1.49 1.23 1.14 1.01 0.99 1.00 0.96
0.87 0.92 1.02 1.16 1.27 1.36 1.58 1.94 2.03 2.05 2.07 2.14 2.17 2.24 2.26 2.28 2.29 2.43 2.59 2.73 2.77 2.68 2.55 2.53 2.50 2.39 2.30 2.22 1.99 1.77 1.67 1.68 1.68 1.78 1.86 1.69 1.51 1.32 1.17 1.13 1.08 0.98 0.90
0.90 0.95 1.01 1.13 1.22 1.18 1.30 1.49 1.69 1.80 1.81 1.80 1.83 1.84 1.96 2.08 2.24 2.42 2.48 2.56 2.63 2.63 2.60 2.55 2.47 2.42 2.38 2.36 2.16 1.90 1.70 1.66 1.71 1.77 1.80 1.66 1.52 1.32 1.19 1.18 1.08 0.94 0.91
0.84 0.90 1.02 1.02 1.06 1.13 1.14 1.17 1.24 1.44 1.59 1.61 1.63 1.69 1.79 1.90 2.07 2.29 2.43 2.38 2.40 2.56 2.46 2.31 2.20 2.13 2.07 2.14 2.02 1.78 1.67 1.64 1.73 1.79 1.84 1.76 1.65 1.53 1.38 1.29 1.26 1.22 1.15
0.85 0.89 0.95 0.95 0.95 1.02 1.04 1.08 1.20 1.39 1.49 1.45 1.46 1.49 1.52 1.62 1.75 1.92 2.04 2.02 1.80 1.83 1.74 1.58 1.44 1.39 1.42 1.48 1.40 1.30 1.25 1.30 1.44 1.55 1.72 1.73 1.62 1.53 1.49 1.46 1.39 1.34 1.27